YAOGAN-34 03 (54249 NORAD) Tracking and Keplerian Element Data

This shows tracking and keplerian element data for the satellite.

Feedback or suggestion? Click here.




ElementValue
Catalog54249
NameYAOGAN-34 03
Epoch Orbit73
Epoch Day324.46772751
Epoch Year2022
RAAN12.4943
Inclination63.4097
Eccentricity0.0009327
Argument of Perigee254.1596
Mean Anonmoly105.8397
Mean Motion13.46763287
Decay Rate-9E-07
L11 54249U 22154A 22324.46772751 -.00000090 00000+0 00000+0 0 9998
L22 54249 63.4097 12.4943 0009327 254.1596 105.8397 13.46763287 731



Live tracking and technical data element details for YAOGAN-34 03 (NORAD 54249). YAOGAN-34 03 can be tracked NOW for your location showing map with azimuth and elevation plus other details from your city location.







IsCatalogInMostPopularTable: catalog: 54249, numindb: 5
Update: records affected: 1



GetName: 54249 YAOGAN-34 03

Hit Count: updated at: Sun, 04 Dec 2022 21:43:25 GMT